{"data":{"norad_id":62404,"intl_designator":"2024-247AD","name":"BANDWAGON-2 OBJECT AD","alt_names":[],"object_type":"PAYLOAD","status":"ACTIVE","operator":null,"country":"TBD","launch_date":"2024-12-21","launch_site_code":"AFWTR","launch_vehicle":null,"mission":null,"orbit_class":"UNKNOWN","rcs_meters":null,"size_class":null,"mass_kg":null,"dimensions":null,"purposes":[],"wikipedia_slug":null,"has_3d_model":false,"image_url":null,"decayed_at":null,"tle_current":{"epoch":"2026-05-25T00:17:28.572000Z","epoch_age_seconds":81397,"freshness":"FRESH","line1":"1 62404U 24247AD  26145.01213625  .00039350  00000+0  69464-3 0  9994","line2":"2 62404  44.9961  21.9261 0007461 168.9270 191.1787 15.49743557 79867","mean_motion":15.49743557,"eccentricity":0.0007461,"inclination_deg":44.9961,"raan_deg":21.9261,"arg_perigee_deg":168.927,"mean_anomaly_deg":191.1787,"bstar":0.00069464,"rev_number":7986,"period_min":92.918598918879,"perigee_km":412.40542622204,"apogee_km":422.54583939272,"semimajor_km":6795.6126328074,"source":"CELESTRAK","updated_at":"2026-05-25T13:38:02.972812Z"}}}